[[{"header":{"parameterUnit":"m.s-1","parameterCategory":1,"la1":30.2991,"la2":30.254,"lo1":-89.0895,"lo2":-89.0444,"dy":0.0017,"dx":0.0017,"nx":28,"ny":28,"refTime":"2026-02-24T09:00:00:Z","depth":0,"parameterNumber":2,"parameterNumberName":"U-component_of_WINDS"},"data":[0,0,0,0,0,0,0,0,0,0,0,0,0,0,0,0,0,0,0,0,0,0,0,0,0,0,0,0,0,0,0,0,0,0,0,0,0,0,0,0,0,0,0,0,0,0,0,0,0,0,0,0,0,0,0,0,0,0,3.4708,3.4708,0,3.4656,3.4656,3.4655,3.4545,3.4543,3.4541,3.4539,3.4485,3.4486,3.4487,0,0,0,0,0,0,0,0,0,0,0,0,0,3.4711,3.4712,3.4709,3.4708,3.4707,3.4656,3.4656,3.4655,3.4546,3.4543,3.454,3.4538,3.4485,3.4486,3.4487,0,0,0,0,0,0,0,0,0,0,0,0,0,3.469,3.4712,3.4709,3.4647,3.4641,3.4656,3.4656,3.4655,3.4546,3.4543,3.454,3.4537,3.4485,3.4486,3.4487,3.4559,0,0,3.449,3.449,0,0,0,0,0,0,0,0,3.4691,3.469,3.4656,3.4651,3.4644,3.4604,3.4637,3.4622,3.4547,3.4582,3.4539,3.4535,3.4527,3.4525,3.4522,3.4556,3.4554,3.449,3.449,3.4491,3.4491,0,0,0,0,0,0,0,3.4693,3.4692,3.4688,3.4656,3.4649,3.4621,3.4614,3.4634,3.4574,3.4579,3.4571,3.4566,3.4523,3.4522,3.452,3.4553,3.449,3.449,3.4491,3.4491,3.4637,3.464,0,0,0,0,0,0,3.4704,3.4694,3.4689,3.4686,3.466,3.4623,3.4616,3.462,3.4573,3.4563,3.4569,3.4561,3.4522,3.4519,3.4518,3.4594,3.4491,3.4491,3.4492,3.4634,3.4638,3.4642,0,0,0,0,0,0,3.4704,3.4704,3.4691,3.4688,3.4684,3.4627,3.4633,3.4621,3.4619,3.4566,3.4555,3.4578,3.4519,3.4516,3.4548,3.4591,3.4492,3.4493,3.463,3.4635,3.464,3.4751,0,0,0,0,0,0,3.4705,3.4705,3.4733,3.4689,3.4684,3.4724,3.4635,3.4622,3.4621,3.461,3.4571,3.4562,3.4516,3.4547,3.4549,3.459,3.4493,3.4626,3.4632,3.4638,3.4743,3.4759,3.4772,0,0,0,0,0,3.4705,3.4767,3.4735,3.4735,3.4718,3.4726,3.4724,3.467,3.4625,3.4651,3.4616,3.4563,3.4587,3.4551,3.4552,3.4595,3.4623,3.4631,3.4638,3.4736,3.4756,3.4772,0,0,0,0,0,0,3.4818,3.476,3.4724,3.4774,3.4756,3.4708,3.4739,3.4693,3.4688,3.4678,3.4611,3.4603,3.4643,3.4622,3.4584,3.4659,3.4596,3.4604,3.467,3.4688,3.4703,3.4705,3.4494,0,0,0,0,0,3.4849,3.4861,3.481,3.4859,3.4852,3.4798,3.4799,3.4759,3.4738,3.473,3.4698,3.4679,3.4681,3.4684,3.4684,3.474,3.4728,3.477,3.4785,3.4797,3.4804,3.4827,3.4843,3.4666,3.4666,3.4666,0,0,3.4912,3.4882,3.4894,3.488,3.4862,3.4874,3.4792,3.481,3.4817,3.4732,3.4758,3.4735,3.4709,3.4752,3.4769,3.4736,3.485,3.4807,3.4817,3.4816,3.4836,3.4853,3.4868,3.4671,3.467,3.4669,0,0,3.5033,3.5013,3.5049,3.5032,3.5004,3.4967,3.4976,3.4935,3.4915,3.4941,3.4875,3.4884,3.4891,3.4874,3.4866,3.4978,3.4927,3.498,3.5056,3.5079,3.5093,3.5105,3.514,3.5154,3.4988,3.4988,3.4988,0,3.5114,3.5131,3.5074,3.5094,3.5088,3.5011,3.5045,3.5032,3.5006,3.5003,3.4967,3.4971,3.4949,3.4984,3.5011,3.5009,3.5014,3.4982,3.5096,3.5107,3.5117,3.515,3.5164,3.4994,3.4993,3.4993,3.4992,0,3.5231,3.5243,3.5276,3.525,3.5249,3.5277,3.5222,3.5227,3.5187,3.5153,3.5178,3.5149,3.5139,3.5145,3.5107,3.5174,3.5153,3.5108,3.5042,3.5142,3.5171,3.5183,3.5003,3.5001,3.4999,3.4997,0,0,3.542,3.5361,3.5373,3.5359,3.5322,3.533,3.5354,3.5343,3.5347,3.5332,3.5347,3.5354,3.531,3.5301,3.526,3.5282,3.5366,3.5232,3.5231,3.5254,3.5432,3.5463,3.5479,3.5333,3.5335,3.5337,3.5432,0,3.5528,3.5564,3.5511,3.5558,3.5566,3.5493,3.5512,3.5491,3.546,3.5462,3.5428,3.5432,3.5377,3.537,3.5388,3.5352,3.54,3.5345,3.5343,3.5344,3.5348,3.5495,3.5529,3.562,3.5444,3.5446,3.5447,0,3.566,3.5648,3.5696,3.5652,3.5653,3.5672,3.5656,3.566,3.5633,3.5609,3.5598,3.5549,3.5566,3.5506,3.5527,3.5491,3.5487,3.547,3.5472,3.5466,3.5399,3.5489,3.5648,3.566,3.5466,3.5464,3.5463,0,3.5786,3.5784,3.581,3.5801,3.5752,3.5766,3.5746,3.5716,3.5712,3.5699,3.5695,3.5685,3.5678,3.567,3.5618,3.558,3.5644,3.5581,3.5622,3.5623,3.5635,3.5634,3.5792,3.5641,3.5641,3.5641,3.5641,0,3.591,3.5941,3.5865,3.5882,3.5912,3.5852,3.5884,3.5857,3.5831,3.5838,3.5776,3.5784,3.5718,3.5719,3.5679,3.57,3.5699,3.5677,3.5665,3.568,3.5682,3.5674,3.5665,3.5644,3.5644,3.5643,3.5642,0,3.6055,3.6007,3.603,3.5981,3.597,3.5994,3.5952,3.5963,3.5928,3.5939,3.5938,3.5883,3.588,3.5829,3.5816,3.5789,3.5824,3.5803,3.5833,3.5824,3.5866,3.5861,3.602,3.6036,3.588,3.5882,3.5883,0,3.6135,3.6157,3.611,3.611,3.6093,3.6095,3.609,3.6031,3.6028,3.5997,3.6012,3.6004,3.5994,3.5993,3.5951,3.594,3.5915,3.5972,3.5913,3.5926,3.591,3.5908,3.5907,3.5983,3.5985,3.5987,3.5988,0,3.6281,3.6255,3.625,3.6236,3.6231,3.6218,3.62,3.6204,3.6139,3.6138,3.6134,3.6127,3.6112,3.6104,3.6085,3.6063,3.6013,3.6007,3.6015,3.6028,3.6042,3.603,3.5861,3.6003,3.6001,3.6,3.6,3.5999,3.6392,3.6406,3.6373,3.6369,3.6349,3.6334,3.634,3.6306,3.6301,3.6284,3.625,3.6251,3.622,3.6189,3.6171,3.617,3.614,3.6154,3.6156,3.6159,3.6165,3.6047,3.6167,3.6166,3.6166,3.6165,3.6165,0,3.6529,3.6505,3.6502,3.6477,3.6473,3.6429,3.6406,3.6405,3.6406,3.6382,3.6373,3.6366,3.6357,3.6315,3.63,3.6307,3.6283,3.6305,3.6301,3.6296,3.6194,3.6186,3.6323,3.6323,3.6323,3.6323,3.6323,3.6323,3.66,3.6619,3.659,3.6597,3.6572,3.6571,3.6562,3.6546,3.6526,3.6521,3.6513,3.6485,3.6453,3.6435,3.6424,3.6411,3.6407,3.6435,3.6414,3.6319,3.6304,3.6289,3.6281,3.6436,3.6436,3.6515,3.6516,3.6517]},{"header":{"parameterUnit":"m.s-1","parameterCategory":1,"la1":30.2991,"la2":30.254,"lo1":-89.0895,"lo2":-89.0444,"dy":0.0017,"dx":0.0017,"nx":28,"ny":28,"refTime":"2026-02-24T09:00:00:Z","depth":0,"parameterNumber":3,"parameterNumberName":"V-component_of_WINDS"},"data":[0,0,0,0,0,0,0,0,0,0,0,0,0,0,0,0,0,0,0,0,0,0,0,0,0,0,0,0,0,0,0,0,0,0,0,0,0,0,0,0,0,0,0,0,0,0,0,0,0,0,0,0,0,0,0,0,0,0,7.0249,7.025,0,7.0406,7.0408,7.041,7.0365,7.0362,7.0358,7.0355,7.0511,7.0518,7.0525,0,0,0,0,0,0,0,0,0,0,0,0,0,6.9902,6.9909,7.0248,7.025,7.0252,7.0406,7.0408,7.041,7.0365,7.0361,7.0358,7.0354,7.0509,7.0517,7.0526,0,0,0,0,0,0,0,0,0,0,0,0,0,7.0055,6.9911,7.0248,7.0249,7.025,7.0405,7.0408,7.0411,7.0366,7.0361,7.0357,7.0352,7.0506,7.0517,7.0527,7.0689,0,0,7.056,7.0565,0,0,0,0,0,0,0,0,7.0047,7.0068,7.0247,7.0249,7.0251,7.0361,7.0343,7.0504,7.0367,7.0322,7.0355,7.035,7.0465,7.0479,7.0519,7.0697,7.0703,7.0561,7.0567,7.0572,7.0575,0,0,0,0,0,0,0,7.0036,7.0061,7.0311,7.0249,7.0252,7.0239,7.0255,7.0373,7.0418,7.0326,7.0323,7.0342,7.0465,7.0508,7.0522,7.0706,7.0561,7.057,7.0577,7.0581,7.102,7.1025,0,0,0,0,0,0,7.0025,7.0052,7.0306,7.0315,7.0135,7.0249,7.0267,7.033,7.0417,7.0426,7.0346,7.034,7.0492,7.0509,7.0527,7.072,7.0572,7.0582,7.0588,7.1015,7.1021,7.1027,0,0,0,0,0,0,7.0018,7.0048,7.0299,7.0183,7.0214,7.026,7.0331,7.0336,7.0379,7.0433,7.044,7.0383,7.0489,7.0512,7.0649,7.0725,7.0587,7.0597,7.1009,7.1017,7.1024,7.1108,0,0,0,0,0,0,7.0008,7.0046,7.011,7.0185,7.0221,7.0421,7.0336,7.0343,7.0399,7.0391,7.0469,7.0477,7.0487,7.0633,7.0659,7.0737,7.0605,7.1002,7.1012,7.1022,7.1099,7.1118,7.1135,0,0,0,0,0,6.9996,7.0127,7.0113,7.0144,7.0302,7.0425,7.0445,7.0456,7.0405,7.0468,7.0502,7.0474,7.0713,7.0648,7.0677,7.0759,7.0997,7.101,7.1021,7.1091,7.1114,7.1134,0,0,0,0,0,0,7.0058,7.0137,7.0122,7.0282,7.0348,7.0418,7.0498,7.0481,7.0561,7.0551,7.056,7.0577,7.0717,7.0751,7.0678,7.0918,7.0847,7.0865,7.089,7.0913,7.093,7.0918,7.0614,0,0,0,0,0,7.009,7.0186,7.0249,7.0384,7.0417,7.0452,7.0506,7.0509,7.0576,7.0603,7.0647,7.0711,7.08,7.0859,7.0944,7.1104,7.1118,7.1174,7.1192,7.1207,7.1222,7.1305,7.133,7.1066,7.1066,7.1066,0,0,7.0158,7.0213,7.0273,7.0398,7.0448,7.0544,7.0476,7.0581,7.0651,7.0618,7.075,7.0784,7.0856,7.1005,7.1072,7.1038,7.1298,7.1222,7.1233,7.124,7.132,7.1345,7.1367,7.1074,7.1072,7.1071,0,0,7.033,7.0383,7.0499,7.0552,7.063,7.0651,7.0679,7.0752,7.0773,7.0906,7.0882,7.0965,7.1119,7.1171,7.1217,7.1406,7.1382,7.1433,7.1525,7.1607,7.1627,7.1646,7.171,7.1733,7.1448,7.1448,7.1449,0,7.0404,7.055,7.0561,7.0668,7.0722,7.0698,7.0813,7.0863,7.0964,7.1001,7.0962,7.1153,7.12,7.1358,7.1404,7.1443,7.1473,7.1424,7.1624,7.1642,7.166,7.1721,7.1745,7.1454,7.1453,7.1453,7.1452,0,7.0635,7.0736,7.0821,7.092,7.0983,7.1095,7.1119,7.1182,7.1179,7.1204,7.1337,7.1392,7.1487,7.1525,7.1523,7.1682,7.1658,7.1622,7.155,7.169,7.1748,7.1771,7.1462,7.146,7.1458,7.1457,0,0,7.0851,7.0954,7.0984,7.1027,7.1111,7.1188,7.1296,7.139,7.1441,7.1512,7.16,7.173,7.1696,7.1749,7.1752,7.1824,7.1965,7.1778,7.178,7.1808,7.214,7.2165,7.2193,7.1951,7.1955,7.1959,7.2133,0,7.1028,7.1221,7.1232,7.1406,7.1497,7.1474,7.1568,7.1627,7.1653,7.1733,7.176,7.1851,7.1801,7.1832,7.1902,7.1933,7.2032,7.1921,7.203,7.2034,7.2011,7.2223,7.2251,7.2413,7.2156,7.216,7.2163,0,7.1261,7.1338,7.1521,7.1588,7.1627,7.1712,7.1796,7.1874,7.1939,7.1952,7.201,7.2003,7.211,7.2036,7.2182,7.2107,7.2152,7.2174,7.218,7.2189,7.2105,7.2235,7.2465,7.2488,7.2199,7.2196,7.2193,0,7.1396,7.1546,7.1674,7.1712,7.1795,7.1854,7.1891,7.1952,7.2006,7.208,7.2114,7.2199,7.2245,7.2309,7.2323,7.2269,7.2469,7.2396,7.248,7.2479,7.2522,7.2518,7.2759,7.2555,7.2555,7.2554,7.2554,0,7.1591,7.1703,7.1735,7.1814,7.1937,7.1948,7.2069,7.2102,7.2156,7.2238,7.2223,7.23,7.2315,7.2394,7.2405,7.2523,7.2544,7.2556,7.2557,7.2556,7.2554,7.2584,7.2572,7.2561,7.2559,7.2558,7.2557,0,7.1763,7.179,7.1927,7.1994,7.2013,7.2101,7.2156,7.223,7.2253,7.2357,7.2382,7.2418,7.251,7.2531,7.264,7.2647,7.2786,7.2777,7.2764,7.2763,7.2844,7.2835,7.3111,7.3146,7.2921,7.2923,7.2925,0,7.1885,7.197,7.2046,7.21,7.214,7.2228,7.2283,7.2297,7.2354,7.2434,7.2497,7.2588,7.2661,7.2808,7.2843,7.2925,7.2917,7.3008,7.2929,7.2924,7.2915,7.2909,7.2916,7.3022,7.3025,7.3027,7.3028,0,7.2097,7.2105,7.2187,7.2272,7.2338,7.2406,7.247,7.2515,7.2536,7.2601,7.2696,7.2753,7.2864,7.2952,7.3035,7.307,7.3052,7.3053,7.3076,7.3075,7.3062,7.3067,7.2802,7.3046,7.3044,7.3043,7.3042,7.3041,7.2246,7.2319,7.2383,7.2473,7.2523,7.2583,7.2654,7.2687,7.2766,7.2858,7.2861,7.2963,7.3023,7.3132,7.3172,7.325,7.3221,7.3255,7.3264,7.3271,7.3277,7.3052,7.3265,7.3264,7.3264,7.3264,7.3263,0,7.2454,7.2494,7.2577,7.2667,7.2737,7.2716,7.2785,7.2844,7.2935,7.2993,7.3065,7.3172,7.3257,7.3298,7.3382,7.3436,7.3429,7.3457,7.3452,7.346,7.3299,7.327,7.3461,7.3461,7.3461,7.3461,7.3461,7.3461,7.2571,7.2694,7.2709,7.2855,7.2893,7.2994,7.3035,7.3088,7.3135,7.3255,7.3326,7.3353,7.3403,7.349,7.3566,7.3576,7.3606,7.3637,7.3642,7.3492,7.3471,7.3452,7.3424,7.3644,7.3645,7.3796,7.3797,7.3798]}]]